Location: Blue Sky Observatory
(43.1153°N, 70.9036°W)
Time: 09:34:06
(UTC-04:00)

Daily predictions for brighter satellites

Satellite Brightness Start Highest point End
(mag) Time Altitude Azimuth Time Altitude Azimuth Time Altitude Azimuth
Cosmos 2292 Rocket 3.2 19:02:40 10° SSW 19:05:54 64° W 19:08:51 10° N
Cosmos 1709 Rocket 4.1 19:00:36 10° S 19:06:52 69° E 19:13:14 10° NNE
Cosmos 1726 Rocket 3.8 19:04:55 10° SSE 19:09:05 46° E 19:13:15 10° NNE
Meteor 2-5 Rocket 4.1 19:03:47 10° N 19:09:26 45° ENE 19:14:55 10° SSE
Cosmos 389 Rocket 2.5 19:06:04 10° S 19:09:31 57° E 19:12:56 10° NNE
USA 229 DEB 3.9 19:03:21 10° NW 19:10:34 87° NE 19:17:55 10° SE
USA 229 3.9 19:03:27 10° NW 19:10:40 86° NE 19:18:00 10° SE
Cosmos 482 Debris 4.1 19:07:06 10° WNW 19:11:49 77° SW 19:14:35 10° SE
H-2A R/B 3.2 19:11:19 10° SE 19:14:45 37° ENE 19:18:15 10° N
NOSS 3-1 (A) 4.5 19:07:42 10° NNW 19:14:50 46° NE 19:22:42 10° ESE
BREEZE M DEB (TANK) 3.8 19:05:26 10° WNW 19:15:37 67° NNE 19:18:56 10° ESE
Cosmos 468 Rocket 4.0 19:10:26 10° SSW 19:15:38 81° ESE 19:20:55 10° NNE
Cosmos 841 Rocket 4.0 19:11:33 10° SSE 19:16:10 34° ESE 19:20:47 10° NE
Cosmos 1937 Rocket 3.5 19:11:36 10° NNW 19:16:55 69° ENE 19:22:09 10° SSE
Cosmos 2298 Rocket 4.0 19:12:36 10° NNW 19:17:58 72° ENE 19:23:16 10° SSE
NOSS 3-1 (C) 4.2 19:17:22 10° NNW 19:24:48 63° NE 19:33:05 10° SE
COSMOS 2406 4.1 19:20:24 10° SSE 19:25:02 26° ESE 19:29:43 10° NE
FENGYUN 3A 3.8 19:21:51 10° SSE 19:27:13 83° WSW 19:32:37 10° NNW
Cosmos 1656 Rocket 3.9 19:22:03 10° NNW 19:27:35 52° ENE 19:33:02 10° SE
Cosmos 1766 4.3 19:25:29 10° SE 19:28:41 24° E 19:31:53 10° NE
Cosmos 304 Rocket 4.2 19:25:08 10° S 19:29:34 39° ESE 19:34:03 10° NE
FengYun 1-2 T 4.2 19:24:38 10° SSE 19:30:12 68° ENE 19:35:44 10° N
Resurs 01 Rocket 2.6 19:27:06 10° SE 19:30:50 28° ENE 19:34:35 10° N
Cosmos 2084 3.4 19:27:13 10° SSW 19:31:11 49° ESE 19:34:57 10° NE
Cosmos 2369 Rocket 3.7 19:26:06 10° NW 19:31:18 39° WSW 19:36:28 10° S
Cosmos 1707 2.7 19:28:47 10° N 19:32:44 81° E 19:36:39 10° S
Cosmos 2184 Rocket 4.3 19:27:57 10° SSE 19:33:53 45° E 19:39:53 10° NNE
GP-B 4.3 19:32:49 10° NNE 19:36:14 21° E 19:38:49 14° SE
HJ-1C 3.4 19:33:53 10° SSE 19:37:09 56° ENE 19:40:28 10° N
Cosmos 1763 Rocket 3.4 19:32:08 10° S 19:37:12 72° ESE 19:42:21 10° NNE
Cosmos 540 Rocket 4.2 19:36:38 10° SSE 19:40:57 29° E 19:45:18 10° NE
Cosmos 2228 2.9 19:37:35 10° S 19:41:56 72° E 19:46:16 10° NNE
Cosmos 1939 Rocket 4.4 19:41:15 16° ENE 19:41:56 17° ENE 19:44:27 10° NNE
USA 186 3.1 19:45:15 16° NE 19:45:15 16° NE 19:46:14 10° NNE
Thor Agena Rocket 3.9 19:41:24 10° N 19:46:40 73° WNW 19:51:50 10° SSW
ALOS 3.4 19:42:34 10° S 19:47:03 47° W 19:51:35 10° NNW
Cosmos 1606 Rocket 4.4 19:43:52 10° SSW 19:48:06 52° W 19:52:21 10° N
Cosmos 1953 Rocket 4.2 19:44:13 10° NNW 19:48:29 58° W 19:52:42 10° S
Cosmos 2058 Rocket 3.0 19:44:57 10° S 19:49:18 87° W 19:53:42 10° N
In-Cosmos 22 4.4 19:45:30 10° N 19:51:02 51° ENE 19:56:37 10° SSE
Cosmos 1340 Rocket 4.2 19:48:23 10° NNW 19:52:15 43° W 19:56:07 10° SSW
Cosmos 1378 3.9 19:52:16 10° NNW 19:56:00 56° W 19:59:41 10° S
Cosmos 1674 4.4 19:53:56 10° NNE 19:55:44 16° ENE 19:55:44 16° ENE
Cosmos 2327 Rocket 4.4 19:50:35 10° S 19:56:36 62° E 20:02:36 10° NNE
YAOGAN 6 4.4 19:58:11 16° NE 19:58:11 16° NE 19:59:50 10° NNE
FREGAT/IRIS 4.4 19:57:51 10° SSW 20:00:39 34° W 20:03:27 10° NNW
Cosmos 1544 3.2 19:59:09 10° S 20:02:38 49° E 20:06:09 10° NNE
Spot 2 Rocket 3.6 19:58:46 15° SE 20:02:44 52° ENE 20:07:38 10° N
Cosmos 1805 3.7 20:03:56 28° SE 20:05:15 36° E 20:08:51 10° NNE
CZ-2D R/B 3.1 20:07:15 14° SSE 20:10:32 89° E 20:14:22 10° NNW
Cosmos 1356 Rocket 3.8 20:10:28 10° NNW 20:14:44 66° W 20:19:00 10° S
GEOS 3 Rocket 4.1 20:12:27 10° NE 20:17:25 37° ESE 20:22:22 10° S
Meteor 1-24 Rocket 3.9 20:13:22 10° NNW 20:19:23 78° W 20:25:11 10° S
SJ-6B 4.5 20:19:36 10° SSW 20:23:19 35° W 20:26:57 10° NNW
Cosmos 1125 Rocket 3.4 20:19:46 10° NNW 20:25:05 74° ENE 20:27:33 32° SSE
Cosmos 1953 3.9 20:27:42 22° NE 20:27:42 22° NE 20:29:23 10° NNE
Cosmos 1356 3.6 20:24:42 10° N 20:27:48 58° NE 20:27:48 58° NE
Helios 1A 4.3 20:30:47 26° NE 20:30:47 26° NE 20:33:23 10° N
ERS-1 Rocket 4.3 20:31:41 24° NE 20:31:41 24° NE 20:35:03 10° NNE
Envisat 2.9 20:31:44 24° SSE 20:34:53 87° W 20:40:00 10° NNW
Cosmos 2154 Rocket 3.9 20:32:29 10° S 20:38:41 79° E 20:44:57 10° N
H-2A R/B 4.0 20:40:08 14° NE 20:40:08 14° NE 20:41:41 10° NNE
Cosmos 372 Rocket 3.9 20:33:51 10° NNW 20:39:09 86° ENE 20:40:55 43° SSE
Cosmos 1697 Rocket 4.1 20:39:29 10° N 20:43:49 23° NE 20:43:49 23° NE
Cosmos 1980 Rocket 4.1 20:40:51 10° N 20:43:59 15° NE 20:43:59 15° NE
Cosmos 2341 Rocket 3.9 20:44:08 27° SSE 20:47:39 66° E 20:53:48 10° NNE
Resurs 1-3 4.4 20:45:39 21° SSW 20:48:17 49° W 20:52:33 10° NNW
Cosmos 1656 4.5 20:48:50 10° N 20:53:45 35° NE 20:53:45 35° NE
MOS 1-B Rocket 4.3 20:49:11 14° S 20:54:34 62° WSW 21:00:14 10° NNW
ATLAS 2AS CENTAUR R/B 3.5 20:49:24 10° NNW 20:57:03 43° NE 20:58:53 38° ENE
ATLAS CENTAUR R/B 4.2 20:54:51 10° NW 21:05:03 34° WSW 21:07:51 21° SSW
Resurs 01 Rocket 3.4 21:04:18 15° SSW 21:07:14 29° W 21:11:06 10° NW
Cosmos 1758 4.4 21:09:02 42° NNW 21:09:02 42° NNW 21:11:59 10° N
COSMOS 2406 4.1 21:03:32 10° SW 21:09:01 48° WNW 21:14:36 10° NNE
Nadezhda 3 Rocket 4.4 21:04:14 10° NNW 21:10:27 60° W 21:14:02 26° SSW
BREEZE-M DEB (TANK) 2.9 21:01:58 10° WSW 21:10:17 80° WSW 21:10:17 80° WSW
Meteor 1-21 Rocket 4.3 21:07:04 10° NNW 21:12:50 76° W 21:13:44 62° SSW
NOAA 11 4.2 21:13:48 67° NNE 21:13:48 67° NNE 21:18:42 10° N
Centaur D AC-29 4.0 21:12:48 10° SW 21:14:23 12° SSW 21:14:23 12° SSW
FALCON 9 R/B 3.3 21:11:15 10° WSW 21:14:19 36° SSW 21:14:19 36° SSW
Cosmos 1939 Rocket 4.2 21:17:10 36° WNW 21:17:10 36° WNW 21:20:16 10° NNW
Cosmos 2218 Rocket 4.5 21:19:23 46° NE 21:19:23 46° NE 21:23:53 10° NNE
ARGOS 4.0 21:19:52 40° NNE 21:19:52 40° NNE 21:23:38 10° N
Cosmos 2369 3.9 21:19:46 10° NNW 21:24:35 62° N 21:24:35 62° N
Meteor 2-21 4.4 21:32:23 81° NW 21:32:23 81° NW 21:38:21 10° N
Terra 4.4 21:41:35 12° NNE 21:41:35 12° NNE 21:41:57 10° NNE
SL-8 Rocket 4.2 21:47:00 65° NW 21:47:00 65° NW 21:52:33 10° N
BREEZE-M DEB (TANK) 4.0 21:31:35 10° WNW 21:46:25 55° N 21:46:49 54° NNE
Cosmos 2322 Rocket 4.4 22:12:10 10° N 22:13:58 17° NNE 22:13:58 17° NNE
H-2A R/B 4.1 22:20:47 22° NNW 22:20:47 22° NNW 22:22:36 10° NNW
Cosmos 1697 Rocket 4.4 22:22:44 10° NNW 22:25:33 30° NW 22:25:33 30° NW
Cosmos 1980 Rocket 4.0 22:23:17 10° NNW 22:25:45 27° NNW 22:25:45 27° NNW
ATLAS 2AS CENTAUR R/B 3.8 22:40:38 10° NW 22:46:19 44° WNW 22:46:19 44° WNW
SL-16 R/B 4.5 22:47:38 10° NNW 22:49:14 19° N 22:49:14 19° N
